Vertical_Velocity
-1 -2 3 -2 2 4 -5 1 -2 -12 -10 8 7 -1 0 1 1 -0 -3 -0 0 -1 -3 -2 -2 -1 -2 -2 -1 -2 -0 1 -0 0 1 7 9 13 9 -2 -0 23 16 2
-6 -4 1 -6 -5 12 -1 4 -9 10 -38 34 1 5 2 2 -0 -1 -3 1 -0 -1 -2 -1 -3 -2 -1 1 -0 -2 -0 1 -1 -1 2 13 14 16 10 -7 14 19 -3 30
-7 -0 2 -6 0 4 1 1 8 -6 6 3 8 2 -1 3 1 1 0 0 -1 1 -0 -0 -3 -3 -0 0 -1 -2 -1 0 2 -0 -1 -0 -6 -14 -11 8 14 -1 9 21
-5 -7 4 -0 2 3 2 3 -1 -2 3 -3 1 -1 -4 -2 -0 1 -1 -1 -1 0 1 -1 -2 -3 -1 -1 -0 -1 -2 1 1 -0 -3 -2 5 3 10 23 15 2 20 11
-1 -1 -13 -22 -2 1 1 -1 0 1 -2 -2 2 0 -1 1 0 -1 -0 0 -0 -2 1 0 -2 -2 -2 -1 -2 -1 -1 -0 3 1 -1 -2 8 6 27 5 -2 22 34 23
4 3 -0 -1 5 4 -1 -10 4 -1 3 -3 -5 -6 1 1 0 -1 -0 -0 -1 -2 0 2 -0 -1 -2 -2 -1 -1 -1 -0 1 1 1 -1 -2 -0 -22 -24 -25 7 11 20
4 1 -12 2 9 4 2 4 2 -2 -1 8 -2 -1 0 0 1 -0 1 -1 -0 -1 -1 2 1 -0 -1 -2 -1 -2 -2 -1 -0 5 2 6 -5 1 1 4 22 -7 4 10
5 4 -10 3 8 1 8 8 1 12 5 -5 -3 -4 -3 2 2 -3 1 -1 1 1 -1 0 0 1 0 -2 -2 -1 -1 -2 -2 -4 6 10 10 1 6 10 7 37 9 -6
13 -17 -3 -7 13 25 8 1 4 2 -0 -2 -4 1 -1 -1 2 0 -0 0 0 1 -0 0 -0 -1 1 0 -2 -2 -2 -2 -3 -3 -5 -6 3 7 -1 3 2 -9 -5 -2
5 -1 -2 1 1 4 5 3 1 -0 -5 -2 -3 2 1 -1 2 1 -1 1 1 1 1 -1 -0 -1 -1 -0 1 -0 -2 -3 -2 -3 -2 -1 -2 -2 0 1 6 3 -3 -4
4 -1 -15 7 -1 -1 1 -3 -3 3 -4 -1 1 4 1 2 -0 -0 1 0 1 -0 -0 -1 1 0 0 -1 -0 1 0 -0 -2 -2 -2 -3 -2 -4 -6 -6 -6 -3 -0 0
-6 4 1 -5 1 -0 -4 -3 2 -2 0 1 2 3 2 -1 -1 0 3 0 1 -1 -1 1 1 1 0 0 -1 -1 -1 0 -0 -1 -2 -2 -1 -0 0 -2 -1 -2 -1 3
11 7 12 -1 2 3 2 3 4 5 7 -0 2 2 -3 -1 -2 0 2 2 2 -0 1 0 0 1 0 0 0 -0 -2 -1 0 0 1 -0 -0 -1 1 -1 -3 -3 -2 -1
6 15 2 8 11 9 12 16 8 6 4 4 -1 -2 1 -2 -1 -1 1 2 1 1 2 0 1 0 -1 0 -0 -0 -1 -2 -1 -0 0 -0 -0 -1 0 0 2 2 1 -1
8 9 10 9 3 5 5 3 6 6 3 -2 -1 1 0 -0 -0 1 1 1 2 2 1 -1 1 0 0 1 -0 -0 -0 -1 -0 -1 -1 0 0 -0 -1 -1 0 1 1 -0
5 5 5 7 3 -2 -4 -0 4 9 4 3 4 1 0 0 1 1 0 0 2 2 1 0 0 -1 -0 0 -0 -0 -1 -1 -1 -0 -1 -1 0 1 1 0 -2 -2 -2 -1
-5 -0 9 13 4 6 3 -5 -2 -2 4 1 0 -0 2 3 -1 -1 -2 -1 1 1 1 -0 -0 -1 -1 -1 -1 0 -2 -1 -1 -1 -0 -1 -1 -0 1 1 0 0 -1 -1
2 1 -0 -3 -6 0 4 -1 -1 2 1 -0 -0 0 0 0 -0 -0 -1 -0 0 1 1 1 0 -1 -1 -0 -1 -1 -0 -1 -1 -1 -0 0 -1 -1 0 -0 -0 -1 -2 -1
-0 -2 -2 -2 -2 -4 -3 -0 1 0 -1 -1 -1 -0 0 2 2 2 -0 1 1 1 0 1 1 -0 -0 1 0 -1 -1 -1 -0 -1 1 -0 -1 -1 -1 -1 -2 -1 -1 -2
1 0 -2 -3 -0 -3 0 -1 -2 0 0 -0 -2 -2 0 -0 -0 0 0 1 1 1 0 -0 -1 0 0 -0 -0 1 -0 -1 -1 0 0 -1 -1 -0 -1 -0 -1 -2 -2 -2
-4 -2 -3 -5 -1 -2 -1 -1 1 0 -1 -1 -1 -0 0 0 0 -0 -1 1 2 1 1 1 0 -0 -0 0 -0 -1 -1 0 -0 -1 -2 -1 -0 -0 -0 -0 -0 -1 -1 -1
-2 -4 -2 -1 0 2 1 1 2 1 1 1 1 2 1 1 1 1 2 1 1 1 1 -0 -1 0 -1 -1 -2 -1 -1 -1 -1 -1 0 -1 -1 -2 -2 -2 -2 -2 -1 -1
-2 -2 -0 -1 -2 -1 -1 -1 0 1 0 -0 0 1 2 2 1 2 2 1 1 1 1 -1 -1 -1 0 1 0 -0 -1 -1 -1 -1 -1 -1 -1 -1 -1 -2 -1 -1 -2 -2
1 -0 0 -1 -0 0 1 -0 -0 -0 1 1 1 1 2 1 1 2 2 1 -0 -0 -1 -0 0 0 0 -1 -1 -1 -1 -1 -0 -0 -1 -2 -2 -2 -1 0 1 -1 -2 -3
-1 -1 1 1 1 1 0 0 0 0 0 0 0 1 1 1 1 1 2 2 0 -0 -0 -0 -0 -0 -0 -0 -1 -1 -1 -1 -1 -3 -3 -2 -2 -0 -0 -1 -1 -1 -1 -1
1 -1 -2 -1 -1 -0 0 0 -0 -0 -0 0 0 1 1 1 1 0 -1 -1 -0 -0 0 0 0 0 0 -0 0 1 1 -1 -3 -3 -1 -0 -1 -2 -1 -1 -2 -3 -2 -2
-1 0 1 -0 -1 -0 1 1 1 2 2 1 1 1 1 1 1 0 0 -0 0 1 1 0 0 0 0 1 1 -0 -2 -3 -2 -2 -3 -2 -1 0 0 -1 -2 -1 -1 -0
Height
2994 2994 2991 2987 2985 2983 2978 2973 2975 2965 2965 2963 2963 2960 2958 2958 2957 2954 2950 2947 2943 2938 2933 2927 2921 2914 2906 2899 2894 2890 2886 2881 2876 2870 2862 2855 2850 2850 2849 2852 2858 2864 2869 2883
2983 2985 2981 2975 2971 2970 2965 2964 2961 2958 2954 2960 2957 2954 2953 2953 2951 2948 2945 2942 2939 2934 2929 2923 2918 2912 2904 2897 2891 2887 2884 2879 2874 2869 2863 2855 2852 2850 2851 2855 2858 2863 2868 2876
2979 2979 2976 2967 2954 2955 2955 2954 2954 2952 2952 2952 2952 2951 2950 2949 2945 2943 2940 2937 2934 2930 2925 2920 2916 2910 2903 2896 2889 2885 2882 2878 2874 2870 2865 2861 2857 2858 2856 2854 2858 2860 2868 2876
2976 2977 2969 2956 2954 2954 2951 2948 2948 2948 2946 2945 2946 2946 2945 2943 2940 2937 2935 2933 2930 2926 2922 2917 2913 2908 2902 2895 2889 2884 2881 2877 2874 2872 2868 2865 2862 2861 2858 2857 2859 2864 2867 2879
2975 2969 2956 2954 2950 2950 2949 2947 2944 2942 2942 2943 2944 2942 2940 2937 2935 2932 2929 2927 2925 2922 2918 2914 2910 2906 2901 2895 2889 2883 2880 2876 2873 2872 2870 2868 2864 2864 2862 2863 2863 2861 2864 2877
2970 2967 2956 2950 2948 2946 2946 2942 2940 2938 2939 2939 2938 2936 2935 2932 2929 2926 2924 2922 2921 2918 2915 2911 2907 2904 2900 2895 2889 2884 2879 2876 2873 2871 2870 2869 2866 2865 2868 2869 2867 2863 2872 2877
2965 2962 2951 2948 2943 2942 2946 2944 2938 2938 2935 2933 2933 2932 2929 2925 2922 2921 2918 2916 2915 2914 2912 2908 2904 2901 2898 2894 2889 2885 2880 2876 2873 2870 2870 2869 2871 2869 2869 2870 2869 2869 2870 2875
2958 2956 2950 2943 2940 2940 2940 2937 2937 2934 2931 2927 2926 2924 2922 2919 2916 2914 2913 2911 2910 2909 2907 2905 2902 2899 2896 2893 2889 2885 2881 2877 2873 2871 2869 2868 2868 2869 2866 2868 2869 2870 2872 2877
2958 2950 2945 2942 2939 2936 2932 2930 2930 2929 2926 2923 2920 2916 2915 2913 2911 2909 2907 2905 2904 2904 2903 2901 2899 2897 2894 2891 2888 2884 2880 2877 2874 2871 2869 2868 2865 2864 2865 2865 2867 2872 2876 2880
2950 2938 2935 2932 2930 2925 2921 2920 2920 2918 2918 2917 2914 2910 2908 2907 2906 2904 2901 2900 2899 2898 2898 2897 2896 2894 2892 2890 2887 2884 2879 2876 2874 2872 2870 2868 2867 2866 2865 2866 2866 2868 2873 2877
2936 2931 2921 2919 2917 2914 2911 2910 2911 2910 2909 2909 2907 2905 2903 2902 2899 2898 2896 2894 2893 2893 2893 2893 2892 2891 2889 2888 2886 2883 2880 2876 2873 2871 2869 2868 2867 2866 2866 2866 2867 2868 2869 2872
2932 2921 2912 2904 2904 2903 2901 2904 2903 2901 2901 2902 2901 2899 2897 2895 2893 2892 2891 2889 2887 2887 2888 2888 2888 2887 2886 2885 2884 2882 2878 2875 2872 2869 2868 2866 2865 2865 2864 2865 2865 2866 2867 2868
2930 2918 2907 2898 2893 2892 2895 2896 2895 2896 2897 2897 2896 2893 2892 2890 2887 2886 2885 2884 2883 2882 2883 2883 2884 2883 2881 2880 2880 2879 2877 2874 2872 2869 2866 2864 2863 2862 2862 2862 2862 2862 2863 2865
2925 2916 2907 2900 2897 2895 2894 2894 2894 2894 2894 2893 2892 2890 2887 2884 2881 2880 2879 2879 2878 2878 2878 2879 2879 2878 2877 2876 2876 2875 2873 2871 2869 2867 2865 2863 2862 2861 2860 2860 2860 2859 2859 2860
2921 2916 2911 2905 2901 2897 2894 2893 2892 2892 2892 2891 2888 2884 2881 2878 2875 2874 2873 2874 2874 2874 2874 2874 2874 2873 2872 2872 2871 2870 2869 2867 2865 2864 2862 2861 2860 2860 2859 2858 2857 2856 2856 2857
2917 2913 2909 2905 2901 2898 2895 2893 2891 2892 2891 2886 2882 2879 2876 2873 2869 2868 2867 2868 2869 2870 2870 2869 2869 2869 2868 2867 2867 2866 2865 2863 2861 2860 2858 2857 2856 2856 2857 2857 2856 2855 2854 2853
2914 2910 2906 2903 2899 2897 2895 2892 2891 2888 2883 2879 2877 2875 2872 2869 2866 2864 2863 2863 2864 2865 2865 2865 2864 2864 2863 2863 2862 2861 2860 2858 2856 2855 2854 2853 2853 2852 2852 2852 2853 2853 2852 2852
2913 2908 2904 2900 2896 2894 2893 2890 2887 2883 2880 2878 2874 2871 2868 2865 2863 2861 2859 2859 2860 2860 2861 2860 2860 2859 2858 2858 2857 2856 2855 2853 2852 2850 2850 2849 2849 2848 2848 2848 2847 2847 2848 2848
2908 2903 2899 2895 2891 2889 2886 2884 2881 2878 2875 2873 2870 2866 2863 2860 2858 2857 2856 2856 2856 2857 2857 2856 2855 2855 2854 2853 2852 2850 2849 2848 2846 2846 2845 2845 2845 2844 2844 2844 2844 2843 2843 2842
2901 2896 2890 2886 2883 2880 2878 2876 2874 2872 2869 2866 2863 2861 2859 2856 2855 2854 2852 2852 2852 2852 2851 2851 2850 2850 2849 2848 2847 2845 2844 2843 2842 2842 2841 2841 2840 2840 2840 2840 2840 2840 2839 2839
2890 2886 2882 2878 2876 2873 2870 2867 2865 2864 2861 2859 2856 2854 2852 2851 2850 2849 2848 2847 2847 2846 2846 2846 2846 2845 2844 2843 2842 2841 2839 2839 2838 2838 2837 2837 2837 2837 2836 2836 2835 2835 2835 2834
2879 2876 2873 2869 2867 2865 2861 2859 2857 2855 2853 2851 2849 2847 2846 2845 2844 2844 2843 2843 2842 2842 2842 2842 2841 2840 2839 2838 2837 2836 2836 2835 2835 2835 2834 2834 2834 2833 2833 2832 2831 2830 2830 2829
2872 2867 2863 2860 2859 2856 2854 2852 2849 2847 2846 2844 2843 2841 2840 2840 2839 2839 2838 2838 2838 2838 2838 2837 2836 2835 2835 2834 2834 2833 2833 2832 2832 2832 2831 2831 2830 2830 2829 2828 2827 2827 2826 2825
2870 2864 2860 2856 2852 2849 2847 2845 2843 2841 2839 2838 2837 2836 2836 2835 2835 2834 2834 2834 2834 2833 2833 2832 2831 2831 2831 2830 2830 2830 2830 2830 2829 2829 2828 2828 2827 2826 2826 2825 2824 2823 2822 2822
2868 2863 2858 2854 2850 2847 2844 2841 2839 2837 2835 2834 2833 2832 2832 2831 2831 2831 2831 2830 2829 2829 2828 2828 2828 2827 2827 2827 2827 2827 2827 2826 2826 2826 2825 2825 2824 2824 2824 2823 2823 2822 2821 2820
2865 2860 2855 2851 2848 2844 2841 2838 2836 2834 2832 2831 2830 2829 2829 2828 2827 2826 2826 2825 2825 2824 2824 2824 2824 2825 2825 2824 2825 2825 2825 2825 2825 2825 2825 2824 2824 2824 2823 2822 2821 2820 2819 2817
2861 2856 2852 2848 2845 2842 2839 2836 2834 2832 2830 2829 2827 2826 2825 2824 2823 2822 2821 2820 2821 2821 2821 2821 2822 2822 2823 2823 2824 2824 2825 2825 2825 2825 2824 2824 2823 2822 2821 2820 2818 2817 2815 2813